Location: Antoign�
(47.0844°N, 0.1131°W)
Time: 08:59:10
(UTC+00:00)

Cosmos 1844 Rocket - Pass Details

Date: 03 March 2021
Orbit: 826 x 843 km, 71.0° (Epoch: 13 April)

Event Time Altitude Azimuth Distance (km) Brightness Sun altitude
Rises 18:21:13 0° 336° (NNW) 3,376 6.1 -6.3°
Reaches altitude 10° 18:23:49 10° 345° (NNW) 2,439 5.3 -6.7°
Maximum altitude 18:29:03 39° 54° (NE) 1,216 3.2 -7.6°
Drops below altitude 10° 18:34:15 10° 123° (ESE) 2,426 4.6 -8.5°
Enters shadow 18:36:01 - 129° (SE) 3,059 5.1 -8.8°
